TimeEST,TemperatureF,Dew PointF,Humidity,Sea Level PressureIn,VisibilityMPH,Wind Direction,Wind SpeedMPH,Gust SpeedMPH,PrecipitationIn,Events,Conditions,WindDirDegrees,DateUTC
12:53 AM,6.1,1.0,80,30.42,6.0,Calm,Calm,-,N/A,,Haze,0,2014-02-04 05:53:00
1:53 AM,5.0,1.0,84,30.42,5.0,Calm,Calm,-,N/A,,Clear,0,2014-02-04 06:53:00
2:53 AM,6.1,1.9,83,30.42,6.0,Calm,Calm,-,N/A,,Clear,0,2014-02-04 07:53:00
3:53 AM,6.1,1.9,83,30.42,5.0,Calm,Calm,-,N/A,,Clear,0,2014-02-04 08:53:00
4:53 AM,8.1,3.0,80,30.45,5.0,Calm,Calm,-,N/A,,Haze,0,2014-02-04 09:53:00
5:53 AM,8.1,3.9,83,30.47,5.0,Calm,Calm,-,N/A,,Clear,0,2014-02-04 10:53:00
6:53 AM,10.0,5.0,80,30.44,5.0,NNE,3.5,-,N/A,,Haze,30,2014-02-04 11:53:00
7:53 AM,10.9,7.0,84,30.45,4.0,Calm,Calm,-,N/A,,Clear,0,2014-02-04 12:53:00
8:53 AM,12.9,9.0,84,30.48,4.0,Calm,Calm,-,N/A,,Clear,0,2014-02-04 13:53:00
9:53 AM,16.0,10.9,81,30.46,4.0,East,3.5,-,N/A,,Haze,80,2014-02-04 14:53:00
10:53 AM,18.0,10.9,74,30.45,6.0,ENE,6.9,-,N/A,,Haze,70,2014-02-04 15:53:00
11:53 AM,19.9,10.9,68,30.42,9.0,ENE,4.6,-,N/A,,Clear,70,2014-02-04 16:53:00
12:53 PM,21.0,12.0,68,30.38,10.0,ENE,4.6,-,N/A,,Clear,60,2014-02-04 17:53:00
1:53 PM,21.9,12.0,66,30.36,10.0,NE,5.8,-,N/A,,Scattered Clouds,50,2014-02-04 18:53:00
2:53 PM,23.0,10.9,60,30.35,10.0,East,6.9,-,N/A,,Overcast,80,2014-02-04 19:53:00
3:53 PM,23.0,12.0,63,30.35,10.0,NNE,6.9,-,N/A,,Overcast,30,2014-02-04 20:53:00
4:53 PM,23.0,12.9,65,30.32,9.0,NE,8.1,-,N/A,,Overcast,40,2014-02-04 21:53:00
5:53 PM,21.9,14.0,72,30.32,6.0,NNE,6.9,-,N/A,,Haze,20,2014-02-04 22:53:00
6:18 PM,21.2,14.0,74,30.27,2.5,NNE,8.1,-,0.00,Snow,Light Snow,30,2014-02-04 23:18:00
6:22 PM,21.2,15.8,80,30.27,1.8,NNE,9.2,-,0.00,Snow,Light Snow,20,2014-02-04 23:22:00
6:41 PM,21.2,15.8,80,30.28,0.8,NNE,9.2,-,0.00,Snow,Light Snow,30,2014-02-04 23:41:00
6:53 PM,21.0,16.0,81,30.32,0.8,NE,9.2,-,0.01,Snow,Light Snow,40,2014-02-04 23:53:00
7:22 PM,19.4,15.8,86,30.21,0.8,ENE,9.2,-,0.00,Snow,Light Snow,60,2014-02-05 00:22:00
7:32 PM,19.4,15.8,86,30.21,0.8,NE,9.2,-,0.01,Snow,Light Snow,50,2014-02-05 00:32:00
7:44 PM,19.4,15.8,86,30.20,1.0,NE,9.2,-,0.01,Snow,Light Snow,50,2014-02-05 00:44:00
7:53 PM,19.9,16.0,85,30.24,1.0,NE,10.4,-,0.01,Snow,Light Snow,40,2014-02-05 00:53:00
8:05 PM,19.4,15.8,86,30.19,0.5,NE,8.1,-,0.00,Fog-Snow,Snow,40,2014-02-05 01:05:00
8:19 PM,19.4,15.8,86,30.20,0.8,NE,8.1,-,0.01,Snow,Light Snow,40,2014-02-05 01:19:00
8:27 PM,19.4,17.6,93,30.19,0.8,NE,9.2,-,0.01,Snow,Light Snow,50,2014-02-05 01:27:00
8:37 PM,21.2,17.6,86,30.16,1.0,NE,10.4,-,0.01,Snow,Light Snow,50,2014-02-05 01:37:00
8:44 PM,21.2,17.6,86,30.17,0.8,NE,9.2,-,0.02,Snow,Light Snow,50,2014-02-05 01:44:00
8:53 PM,21.0,17.1,85,30.20,0.8,NE,8.1,-,0.02,Snow,Light Snow,50,2014-02-05 01:53:00
9:06 PM,21.2,17.6,86,30.15,1.0,NE,11.5,18.4,0.00,Snow,Light Snow,50,2014-02-05 02:06:00
9:19 PM,21.2,17.6,86,30.13,1.2,ENE,10.4,19.6,0.00,Snow,Light Snow,60,2014-02-05 02:19:00
9:48 PM,21.2,17.6,86,30.13,1.0,ENE,9.2,-,0.01,Snow,Light Snow,60,2014-02-05 02:48:00
9:53 PM,21.0,17.1,85,30.17,1.0,ENE,10.4,-,0.01,Snow,Light Snow,60,2014-02-05 02:53:00
10:05 PM,21.2,17.6,86,30.15,2.0,ENE,8.1,-,0.00,Snow,Light Snow,60,2014-02-05 03:05:00
10:10 PM,21.2,17.6,86,30.15,3.0,ENE,6.9,-,0.00,Snow,Light Snow,60,2014-02-05 03:10:00
10:40 PM,21.2,17.6,86,30.11,2.5,ENE,10.4,-,0.00,Snow,Light Snow,60,2014-02-05 03:40:00
10:53 PM,21.0,17.1,85,30.13,2.0,NE,11.5,-,0.00,Snow,Light Snow,50,2014-02-05 03:53:00
11:03 PM,21.2,17.6,86,30.09,1.8,NE,9.2,17.3,0.00,Snow,Light Snow,50,2014-02-05 04:03:00
11:27 PM,21.2,17.6,86,30.07,2.0,NE,8.1,17.3,0.00,Snow,Light Snow,50,2014-02-05 04:27:00
11:53 PM,21.0,17.1,85,30.10,1.8,ENE,8.1,-,0.00,Snow,Light Snow,60,2014-02-05 04:53:00